Location: Cappanaghtan
(53.2081°N, 8.3708°W)
Time: 14:43:24
(UTC+00:00)

Daily predictions for brighter satellites

Satellite Brightness Start Highest point End
(mag) Time Altitude Azimuth Time Altitude Azimuth Time Altitude Azimuth
Cosmos 2056 Rocket 3.6 21:48:26 10° NNW 21:53:32 67° ENE 21:58:37 10° SE
NOSS 2-3 (D) 3.7 21:57:16 10° WSW 22:00:55 67° NW 22:04:56 10° NE
SL-08 R/B 4.2 21:58:08 10° N 22:02:35 51° WNW 22:07:01 10° SW
SWARM C 4.4 22:01:16 10° N 22:04:31 83° E 22:07:44 10° S
SWARM A 4.2 22:01:26 10° N 22:04:40 71° E 22:07:52 10° S
Cosmos 1420 Rocket 4.4 21:59:35 10° NNW 22:04:44 62° WSW 22:09:49 10° S
USA 276 3.5 22:08:35 10° S 22:09:29 11° SSE 22:10:24 10° SE
Cosmos 1703 3.9 22:07:21 10° SSW 22:10:23 44° WNW 22:13:27 10° N
USA 215 3.5 22:04:17 10° E 22:10:48 75° NNE 22:17:21 10° WNW
Meteor 1-15 Rocket 4.4 22:05:34 10° NNW 22:11:22 79° W 22:17:01 10° S
NOSS 2-1 (E) 4.2 22:12:07 10° S 22:15:13 23° SE 22:17:51 10° ENE
CZ-4B R/B 3.4 22:13:05 10° S 22:16:58 54° W 22:20:57 10° NNW
Ariane Rocket 3.3 22:12:54 10° S 22:17:57 66° WSW 22:23:01 10° NNW
NOSS 2-3 (C) 3.5 22:15:32 10° WSW 22:18:55 66° NW 22:22:44 10° NE
IRS-1C Rocket 4.5 22:16:16 10° S 22:21:29 64° WSW 22:26:44 10° NNW
Okean O Rocket 3.6 22:18:32 10° SSW 22:22:07 24° W 22:25:44 10° NW
Terra 4.4 22:21:53 10° WSW 22:24:04 13° W 22:26:16 10° WNW
Iridium 4 Rocket 3.7 22:19:24 10° SSW 22:24:26 67° W 22:29:04 10° N
Lacrosse 4 Rocket 3.7 22:22:42 10° NNW 22:25:49 20° NNE 22:28:56 10° ENE
Cosmos 1833 Rocket 4.2 22:21:36 10° NW 22:26:22 29° WSW 22:31:07 10° SSW
Cosmos 1470 Rocket 3.6 22:22:48 10° N 22:27:17 87° ENE 22:31:40 10° S
Helios 1B rocket 3.9 22:25:29 10° ESE 22:28:06 20° ENE 22:30:42 10° NNE
Cosmos 2315 Rocket 4.0 22:23:03 10° S 22:29:15 76° E 22:35:27 10° NNE
ATLAS 5 CENTAUR R/B 4.1 22:24:42 10° SW 22:30:14 75° SE 22:53:24 10° NE
Cosmos 1812 3.0 22:29:12 10° NNE 22:30:18 15° ENE 22:31:08 12° ESE
Cosmos 923 Rocket 4.0 22:25:46 10° SSW 22:31:00 84° ESE 22:36:15 10° NNE
Cosmos 1953 3.6 22:28:07 10° NNW 22:31:18 31° W 22:34:28 10° SSW
CZ-4B R/B 4.1 22:27:32 10° S 22:32:36 55° W 22:37:47 10° NNW
USA 59 Rocket -0.5 22:30:19 10° SSW 22:33:42 47° SE 22:36:35 10° ENE
Cosmos 1933 Rocket 4.0 22:30:23 10° N 22:34:36 49° ENE 22:38:23 12° SSE
Cosmos 1441 Rocket 4.2 22:33:46 13° SE 22:35:55 23° E 22:38:34 10° NE
Cosmos 1328 Rocket 3.8 22:32:17 10° SSW 22:36:36 71° WNW 22:40:56 10° N
GP-B 4.1 22:33:16 10° N 22:37:26 45° W 22:41:36 10° SSW
BREEZE-M DEB (TANK) 3.8 22:25:41 10° W 22:37:35 84° S 22:40:56 10° E
Okean 3 4.2 22:34:54 12° SSE 22:38:07 35° E 22:41:47 10° NNE
Cosmos 2112 Rocket 4.0 22:33:28 10° S 22:38:33 62° ESE 22:43:41 10° NNE
NOSS 2-1 (D) 3.1 22:35:12 10° SSW 22:38:39 45° SE 22:41:35 10° ENE
CZ-2C R/B 2.2 22:36:44 12° S 22:39:08 58° WSW 22:41:51 10° NNW
BREEZE-M DEB (TANK) 3.9 22:39:27 10° SW 22:40:26 12° SSW 22:40:53 12° S
Cosmos 1110 Rocket 4.1 22:35:30 10° NNW 22:40:42 71° ENE 22:45:23 12° SE
Cosmos 1371 Rocket 4.4 22:40:33 10° NNW 22:45:40 56° WSW 22:50:25 12° S
Cosmos 2344 3.4 22:38:26 10° SW 22:46:05 78° SE 22:53:21 10° NE
S3M 4.3 22:41:06 10° SSW 22:47:13 70° WNW 22:53:25 10° N
Cosmos 2082 Rocket 2.3 22:44:49 10° NW 22:50:27 75° WSW 22:55:23 14° SSE
Cosmos 1452 Rocket 3.9 22:45:51 10° NNW 22:51:05 59° ENE 22:55:52 12° SE
Helios 1A 3.5 22:49:40 10° NNE 22:53:25 39° E 22:56:22 15° SSE
Cosmos 494 Rocket 4.0 22:50:44 10° SSW 22:55:58 85° ESE 23:01:15 10° NNE
Cosmos 2278 Rocket 2.2 22:51:35 10° SSW 22:57:15 80° ESE 23:02:56 10° NNE
NOSS 2-1 (C) 2.8 22:55:01 10° SSW 22:58:33 57° SE 23:01:33 10° NE
Lacrosse 5 rocket 1.8 22:56:00 10° W 22:59:30 53° NNW 23:02:57 10° ENE
Cosmos 2184 Rocket 4.2 22:53:36 10° N 22:59:53 68° ENE 23:05:24 14° SSE
Cosmos 2154 Rocket 4.2 22:54:54 10° N 23:01:05 64° ENE 23:06:28 14° SSE
Cosmos 1174 4.2 23:00:26 12° S 23:03:37 34° SE 23:06:44 10° ENE
Cosmos 1331 Rocket 4.0 22:59:48 10° NNW 23:04:59 83° WSW 23:09:16 15° SSE
CENTAUR R/B 4.4 22:59:50 10° WNW 23:06:21 39° N 23:14:17 10° ENE
Cosmos 1869 Rocket 3.6 23:02:34 10° N 23:06:54 75° ENE 23:10:17 16° SSE
Timation 2 Rocket 4.1 23:01:17 10° SSW 23:07:31 64° ESE 23:14:06 10° NE
SL-8 R/B 4.3 23:03:56 10° SW 23:08:07 32° SSE 23:12:20 10° E
ARIANE 5 R/B 3.3 23:05:10 13° SE 23:08:50 45° ENE 23:13:03 10° N
Cosmos 1943 Rocket 2.5 23:03:12 10° SW 23:08:50 72° NW 23:14:29 10° NNE
ARGOS Delta rocket 4.3 23:06:03 10° NNE 23:11:14 52° E 23:15:12 15° S
USA 238 DEB 3.6 23:06:26 10° SW 23:12:40 87° NW 23:19:40 10° NE
USA 238 3.6 23:06:39 10° SW 23:12:53 88° NW 23:19:53 10° NE
Cosmos 1515 Rocket 3.8 23:13:39 10° SSW 23:17:58 66° WNW 23:22:16 10° N
Cosmos 1733 Rocket 3.8 23:14:41 10° N 23:18:48 43° ENE 23:22:03 15° SE
BREEZE-M R/B 4.1 23:14:13 10° WSW 23:18:59 62° SSE 23:28:47 10° E
CZ-2C R/B 4.0 23:17:04 10° ESE 23:21:32 30° ENE 23:26:06 10° N
Okean 2 4.2 23:18:27 10° SSW 23:22:09 44° WNW 23:25:52 10° N
ALOS 2 3.1 23:21:23 15° SE 23:24:49 54° ENE 23:29:07 10° N
Cosmos 1400 Rocket 3.6 23:21:28 10° NNW 23:24:52 37° W 23:27:37 14° SSW
USA 81 4.2 23:20:08 10° N 23:25:23 70° W 23:29:48 15° S
USA 290 3.6 23:25:49 10° N 23:28:41 31° NE 23:31:10 12° ESE
Cosmos 1048 Rocket 4.0 23:23:56 10° SSW 23:29:08 80° ESE 23:34:28 10° NNE
Cosmos 1680 Rocket 4.4 23:24:49 10° SW 23:29:52 50° WNW 23:34:58 10° NNE
COSMOS 2406 3.3 23:27:09 10° NW 23:32:51 75° WSW 23:37:19 17° SSE
Cosmos 1315 Rocket 3.8 23:31:45 10° N 23:35:18 36° ENE 23:38:04 15° SE
Cosmos 2369 Rocket 3.2 23:32:23 16° SSE 23:35:45 29° ESE 23:40:29 10° NE
ARIANE 6 FM1 Upper Stage 3.6 23:34:00 19° S 23:36:11 30° SE 23:39:47 10° ENE
Cosmos 1862 Rocket 4.4 23:34:20 18° SSE 23:37:03 37° E 23:41:01 10° NNE
NOSS 7 (E) 4.3 23:36:39 10° NW 23:39:50 61° SW 23:41:42 22° SSE
USA 276 2.2 23:39:16 10° SW 23:41:33 33° SSE 23:44:05 10° E
Cosmos 1656 Rocket 3.7 23:40:52 13° SSW 23:45:42 66° ESE 23:51:15 10° NE
Cosmos 972 Rocket 4.1 23:40:01 10° NNW 23:45:42 87° WSW 23:49:35 18° SSE
USA 308 2.6 23:45:04 25° S 23:46:09 35° SE 23:49:42 10° E
Cosmos 1302 Rocket 4.0 23:44:34 10° NNW 23:49:52 80° WSW 23:53:49 18° SSE
Okean 1-7 3.4 23:48:24 20° SSE 23:51:04 50° E 23:55:12 10° NNE
PSLV R/B 4.1 23:48:53 10° NNE 23:53:28 54° E 23:56:35 19° S
